GFSSW_700_rhum_009.txt.gz
RH
32 28 22 15 13 14 13 13 10 7 12 15 6 5 14 15 17 11 11 11 21 13 5 5 6 7 6 11 15 21 21 31 50 47 56 45 49 36 41 33 41 40 39 22 15
28 23 15 14 16 16 15 14 11 8 5 5 7 12 10 9 11 14 9 11 14 4 5 10 5 3 10 14 18 23 20 20 37 36 43 39 32 36 32 35 36 35 35 28 10
24 15 13 16 17 17 15 15 12 8 3 5 10 9 10 18 12 15 20 16 9 17 18 21 16 17 16 15 22 23 14 20 28 38 41 33 24 15 26 30 18 15 28 34 16
15 14 17 18 18 18 16 15 12 7 2 10 9 12 17 16 32 19 10 13 19 21 20 26 29 21 16 18 21 24 14 20 32 31 32 19 15 14 17 16 18 19 17 18 17
14 17 18 19 19 18 15 13 11 5 8 9 11 19 31 32 27 25 16 18 23 25 31 32 30 28 22 20 22 14 12 16 18 30 18 14 14 15 14 14 18 20 23 25 38
18 18 19 20 19 18 15 14 10 5 10 9 20 31 36 30 32 29 17 24 24 24 28 28 25 24 23 21 16 13 12 12 11 11 13 12 12 14 13 14 15 18 25 27 38
18 18 20 21 19 18 16 14 9 9 9 20 30 42 37 31 30 24 29 30 31 31 26 23 23 22 19 19 15 14 13 5 12 13 11 11 11 15 15 16 16 19 23 27 47
17 20 20 20 19 16 13 11 9 12 22 21 38 42 36 31 25 29 27 29 31 29 25 21 23 20 16 18 17 13 15 16 12 12 11 11 15 16 18 20 18 23 25 40 50
20 21 21 19 15 13 10 10 22 26 24 22 36 33 36 27 23 27 26 26 28 28 25 20 22 17 16 16 15 15 16 19 21 24 25 19 24 20 21 21 21 23 23 28 44
20 20 18 15 13 11 20 27 27 24 19 31 36 29 25 23 22 25 25 23 26 19 20 20 19 19 20 14 12 13 16 18 18 20 24 26 24 24 22 21 24 24 23 24 26
20 17 15 12 16 27 29 27 20 14 23 22 32 35 29 22 17 22 21 14 18 17 17 18 22 21 17 18 19 20 21 21 22 18 21 26 24 24 22 24 23 23 22 22 24
19 15 16 24 29 32 34 28 19 18 23 35 34 26 27 28 15 15 17 17 13 11 18 23 24 27 26 23 21 19 23 24 24 23 24 26 25 24 24 25 26 27 30 30 29
17 15 31 36 32 38 34 30 33 37 37 36 33 34 36 27 17 18 24 26 25 28 27 24 26 27 27 24 21 26 24 24 24 27 26 28 50 49 38 34 36 38 37 39 47
19 28 36 42 47 47 44 40 41 40 34 33 30 32 35 25 20 16 27 27 26 25 23 26 22 25 28 31 30 27 27 27 28 27 36 34 66 69 61 61 61 55 58 54 54
28 36 41 50 68 56 57 42 42 36 44 27 27 32 35 28 17 21 28 28 29 29 28 33 34 32 31 33 29 35 31 28 27 29 32 35 48 63 64 61 56 53 57 59 55
33 40 42 54 54 59 51 40 44 48 38 32 30 29 33 33 25 24 26 28 28 31 34 32 35 35 38 32 26 35 38 40 39 38 42 44 43 62 58 51 50 50 51 57 62
38 44 41 62 59 58 44 41 42 58 34 32 28 26 38 31 30 17 30 36 36 36 34 39 27 32 34 39 38 34 37 42 52 63 63 49 48 50 55 57 51 46 50 57 53
44 45 40 62 56 45 40 40 50 35 32 24 24 31 35 35 33 26 36 38 38 36 37 43 44 33 43 42 41 38 38 42 58 75 50 50 56 58 56 57 59 62 66 63 54
44 44 36 48 51 39 37 38 46 33 34 34 35 38 41 41 39 36 33 37 42 43 40 44 42 19 31 45 40 30 23 38 40 52 51 57 62 61 61 62 63 62 67 65 69
39 40 35 33 42 39 36 57 42 32 30 35 37 37 39 42 44 42 40 34 38 45 41 45 37 45 46 39 39 33 34 33 37 56 65 59 62 59 64 64 65 64 65 60 60
35 37 35 26 36 36 35 60 41 36 32 35 39 38 36 36 44 43 42 39 38 42 46 42 25 45 49 45 44 44 30 28 32 44 63 81 59 54 56 59 61 61 60 59 62
39 36 31 27 36 34 44 62 46 38 32 30 35 34 36 31 42 42 42 36 30 28 38 39 36 48 38 34 38 37 28 32 30 48 46 59 46 42 54 60 62 63 60 58 62
37 34 29 28 32 27 49 63 47 43 35 32 34 38 36 35 40 44 44 42 27 24 37 38 42 42 49 37 37 40 41 45 38 41 49 55 41 59 65 64 61 60 58 64 70
32 30 27 25 28 23 48 56 58 51 41 36 36 42 38 42 44 43 43 39 33 25 30 34 31 24 29 31 35 40 48 44 43 44 42 40 39 45 53 60 59 63 62 69 76
33 40 21 21 25 24 52 59 52 48 42 41 44 45 44 43 44 45 43 42 25 14 21 22 23 30 28 25 27 33 40 41 40 41 49 39 45 48 52 55 60 64 70 76 81
46 62 20 22 19 26 61 64 59 53 40 32 32 37 44 47 46 43 46 37 26 12 11 16 20 18 22 22 23 24 28 31 33 38 44 45 46 45 46 49 60 69 75 82 90
71 70 41 50 18 23 60 60 56 51 47 46 39 40 46 53 49 43 42 40 26 15 10 12 15 22 22 23 32 28 16 24 23 27 36 38 37 49 52 55 63 77 82 84 89

GFSSW_700_rhum_015.txt.gz
RH
21 22 21 24 28 27 21 12 12 14 11 10 8 20 22 11 8 13 18 18 17 15 12 10 11 12 13 7 8 22 24 27 47 54 58 66 58 48 46 55 56 56 32 24 47
20 20 21 25 27 24 13 13 16 15 13 10 8 12 8 13 13 13 16 17 15 12 16 10 10 10 6 6 14 17 23 26 44 50 45 53 48 47 56 63 56 49 28 21 36
20 19 23 26 26 15 13 16 17 15 13 10 6 5 10 10 15 14 13 12 12 17 10 7 8 7 4 14 19 22 22 20 43 44 50 36 37 48 65 54 30 30 24 19 16
20 20 26 26 17 14 16 17 16 14 12 9 4 6 10 16 34 21 23 15 20 7 7 9 8 5 9 17 20 22 23 22 31 30 32 37 41 49 57 35 25 22 30 14 13
20 24 27 20 15 16 17 18 16 13 12 6 4 10 15 20 23 21 17 15 12 16 19 15 9 12 15 17 21 22 22 23 26 30 41 39 39 48 34 25 23 26 35 31 29
24 26 24 17 18 16 18 19 15 12 11 4 9 13 20 27 29 23 16 20 22 21 31 34 33 31 19 18 19 22 21 17 22 36 38 38 35 20 23 22 23 26 42 44 43
24 26 17 19 18 19 20 18 15 12 8 7 10 19 31 32 33 19 18 27 29 25 26 28 27 24 26 26 25 21 15 14 27 33 39 33 28 16 15 18 22 31 42 46 52
26 20 18 19 20 20 19 17 15 10 6 9 19 33 34 33 25 22 29 29 31 29 28 27 24 24 24 21 16 13 12 13 18 36 17 15 16 14 16 19 24 27 32 41 46
24 19 17 21 21 20 19 17 14 9 9 18 32 36 36 28 25 30 28 32 30 25 24 25 24 24 22 16 14 14 13 11 15 14 13 12 16 14 18 19 20 24 25 33 40
19 18 19 22 21 19 16 13 10 10 15 31 37 40 40 32 29 28 28 30 29 25 25 26 22 19 19 17 16 14 19 16 15 16 20 13 22 20 17 20 22 21 24 26 33
20 18 22 21 18 15 13 11 17 21 24 31 37 32 32 31 29 27 27 26 27 24 27 25 21 19 19 19 16 15 14 19 20 22 24 25 25 27 26 20 23 22 22 27 32
20 19 20 18 15 14 18 27 27 25 24 27 31 32 32 26 27 28 26 27 27 23 27 24 20 18 19 19 20 21 21 22 23 19 20 20 22 24 26 25 22 22 24 28 34
18 21 18 17 16 30 33 29 27 25 22 30 35 30 29 22 25 26 21 21 24 20 21 23 23 24 26 25 22 21 22 25 26 26 23 23 26 25 24 25 22 22 24 27 30
19 20 17 28 36 37 32 35 41 24 28 32 34 37 37 30 22 22 20 18 26 29 25 22 26 28 31 28 27 25 27 27 24 27 36 30 32 28 26 25 24 26 34 44 51
20 18 22 44 54 34 33 47 41 30 48 31 33 35 34 24 21 18 16 29 28 27 24 25 25 23 26 26 23 27 32 30 29 31 29 33 38 36 36 35 33 43 53 59 53
20 18 38 52 49 35 45 49 38 41 46 29 31 36 34 30 19 21 30 33 30 29 26 24 29 26 28 31 30 29 34 32 32 33 40 34 38 38 35 28 42 58 67 66 53
20 25 48 68 56 49 49 47 45 44 31 30 30 36 38 33 25 30 32 33 32 33 33 31 32 30 30 34 33 34 39 45 49 56 46 43 46 35 34 35 48 57 64 64 61
23 40 51 74 68 62 56 49 44 46 28 34 29 34 38 37 22 29 30 31 30 30 32 34 31 26 27 34 31 31 38 36 57 60 50 53 59 42 40 38 58 64 60 59 60
33 49 52 74 68 67 58 47 41 46 33 30 29 32 38 35 25 27 35 35 34 32 29 37 38 34 33 43 40 39 40 40 42 50 51 47 49 41 43 43 55 64 60 61 61
40 54 52 67 70 60 61 44 42 47 36 29 29 32 39 36 35 30 33 39 37 35 33 39 43 33 33 47 48 42 34 40 36 52 50 46 50 36 33 36 50 59 58 58 60
49 57 55 53 66 58 59 42 55 48 38 31 28 37 40 37 43 32 34 36 37 39 42 42 42 44 39 45 42 41 39 27 28 36 41 49 32 22 26 41 42 45 51 54 60
53 55 53 53 60 58 55 41 60 52 36 35 32 39 38 39 39 39 41 41 38 36 40 43 41 35 44 43 41 40 38 26 25 33 40 46 28 21 22 29 49 55 57 61 65
53 61 54 49 51 53 50 40 50 49 40 35 37 36 39 39 43 42 42 41 42 29 42 46 44 42 47 44 45 41 38 29 28 28 34 56 21 21 25 30 41 57 62 66 68
59 62 54 46 43 47 49 38 59 47 46 41 38 38 39 36 38 40 43 42 44 40 31 43 43 37 34 26 28 35 27 27 34 29 25 22 16 19 29 33 38 48 53 59 61
82 57 50 46 40 38 42 37 60 53 48 39 39 37 34 40 41 39 42 43 45 43 28 32 43 37 33 25 24 29 29 30 28 25 28 15 16 14 22 30 40 49 54 56 60
81 59 48 38 37 33 33 36 57 56 51 42 39 39 41 46 44 45 46 45 45 40 28 27 29 30 30 30 26 22 21 22 23 25 24 20 13 14 21 27 35 42 50 56 62
76 59 43 37 33 33 28 32 55 54 52 44 33 50 52 48 48 46 45 46 48 42 25 22 25 24 22 20 27 28 11 11 12 13 15 17 12 17 18 26 28 38 52 63 70

GFSSW_700_rhum_021.txt.gz
RH
13 14 14 14 14 12 12 18 21 16 9 11 13 10 9 15 22 21 12 10 6 9 15 21 15 12 12 25 22 25 20 16 22 40 65 51 52 61 63 50 70 75 78 37 44
16 16 16 17 15 12 12 19 19 10 11 13 12 10 9 13 16 14 16 16 16 14 19 16 14 13 26 24 23 20 16 16 32 64 48 45 47 49 55 46 58 81 72 30 58
20 20 19 18 16 12 16 18 13 11 14 13 12 11 8 7 13 37 15 15 16 17 16 32 30 28 26 23 23 20 21 22 30 49 49 56 54 47 63 56 57 76 80 38 44
23 22 22 19 15 13 19 18 10 12 15 13 12 11 5 9 45 40 16 12 14 13 17 30 27 29 26 23 22 24 24 23 31 49 38 37 41 46 65 77 58 72 28 30 46
26 24 23 18 14 14 19 12 11 13 15 13 12 8 5 13 28 28 25 17 16 14 9 29 31 28 23 21 22 27 25 27 39 40 31 34 35 52 63 47 64 42 31 29 25
28 25 23 17 15 16 17 11 11 16 16 14 12 4 10 25 34 18 14 12 10 15 25 31 29 25 22 24 26 26 26 24 29 34 52 34 32 62 46 53 70 19 69 64 36
29 26 21 16 17 19 12 12 15 18 16 12 8 7 15 32 30 22 18 20 22 24 37 37 35 32 33 32 31 26 24 21 25 34 35 31 24 32 33 57 70 77 77 78 80
29 27 21 16 20 17 10 15 18 17 14 11 6 11 22 32 30 26 25 31 30 30 35 45 44 40 36 34 24 24 22 21 22 30 37 30 23 16 29 54 60 63 70 79 86
29 25 21 16 21 13 12 17 17 14 12 6 10 18 40 31 32 32 32 31 30 30 30 30 30 30 36 25 22 23 19 19 21 25 30 29 25 18 20 49 55 62 76 83 74
29 24 21 18 18 12 15 18 16 14 7 8 16 28 30 36 37 34 29 33 32 31 30 31 30 33 28 27 20 18 16 13 17 25 25 17 23 23 30 45 55 60 70 79 55
28 23 20 20 15 14 18 18 14 10 9 20 38 42 40 34 24 32 28 33 33 41 38 32 36 32 25 26 21 19 17 12 16 23 18 16 24 28 30 43 52 54 62 71 79
27 23 21 21 15 16 17 14 28 54 27 26 30 33 33 32 32 30 29 36 39 35 36 34 31 31 24 23 19 17 16 19 22 20 23 20 22 29 33 39 46 50 57 65 78
26 24 23 20 17 17 14 14 20 22 43 42 35 36 34 26 30 27 28 32 35 37 36 36 36 22 27 22 20 20 17 25 22 27 23 24 26 35 34 39 34 56 60 66 75
25 24 25 18 18 16 17 27 32 26 55 39 35 35 28 27 30 29 30 32 32 33 33 37 31 29 25 25 24 24 26 25 26 28 22 24 20 29 41 25 24 24 52 73 81
24 25 26 19 15 18 30 33 32 29 48 33 32 36 35 28 24 32 25 32 30 34 32 33 33 27 27 31 24 45 28 31 26 24 28 26 21 33 43 43 28 25 25 41 36
25 27 26 18 18 20 38 45 34 62 40 32 32 32 34 29 26 29 28 28 34 30 33 36 36 34 33 22 23 21 34 34 27 20 25 19 24 29 38 36 47 52 33 45 40
26 29 25 21 46 39 47 49 60 52 34 27 28 30 28 27 26 30 27 25 25 29 29 34 31 24 26 36 32 30 29 26 27 30 28 26 25 20 19 38 38 67 59 70 48
28 30 24 21 53 46 56 51 61 34 30 26 25 27 26 26 25 25 25 23 24 32 30 30 34 32 33 32 29 32 26 27 27 27 23 31 22 18 26 25 30 64 81 60 46
29 33 25 29 64 54 61 88 52 26 30 28 27 27 28 29 28 26 25 23 26 28 28 24 32 35 32 38 31 28 32 31 34 39 34 20 16 24 29 35 44 64 80 83 67
30 34 24 63 74 65 73 63 44 38 35 29 26 27 29 30 27 24 29 32 38 34 31 30 30 36 38 33 31 34 36 32 27 32 32 16 17 14 38 38 51 62 75 84 86
37 44 25 78 79 79 80 58 40 48 46 33 25 26 28 29 27 25 27 37 39 37 30 30 29 40 45 38 28 42 33 33 34 37 33 24 17 25 23 37 44 54 68 78 83
50 67 30 78 82 90 73 56 42 49 53 42 32 28 28 29 31 27 24 28 38 43 33 32 30 33 37 42 36 41 36 36 35 29 36 46 25 20 11 24 44 50 61 71 81
64 80 47 69 92 88 70 54 47 52 49 47 36 35 32 30 31 31 32 36 32 32 35 43 31 37 38 44 46 38 34 36 34 36 31 50 25 32 18 13 25 41 56 68 76
94 82 57 68 94 80 67 51 52 56 50 45 35 42 44 44 44 47 50 37 37 39 38 33 37 36 34 35 36 43 37 36 38 37 31 26 22 24 30 33 33 42 44 59 72
94 77 70 86 89 89 63 54 44 50 56 55 52 42 41 42 48 52 55 39 39 38 42 40 49 41 40 46 42 37 32 36 34 32 30 27 20 17 19 24 29 35 44 46 65
89 71 82 83 86 75 59 50 40 46 53 54 44 39 39 43 46 41 54 50 48 40 44 45 49 46 43 50 44 42 36 30 28 29 27 24 24 22 27 28 35 37 29 23 33
86 72 77 80 80 70 62 50 42 49 58 50 44 48 47 51 45 41 54 55 58 50 44 56 44 41 38 41 44 40 24 30 28 28 30 30 28 26 36 40 41 42 41 23 26

GFSSW_700_rhum_024.txt.gz
RH
12 14 16 18 18 19 19 15 11 15 14 8 10 12 10 8 12 21 20 15 14 8 9 15 21 18 12 29 26 19 18 19 17 18 46 43 79 59 64 60 53 49 90 72 48
17 18 20 22 20 20 19 14 13 15 11 8 12 10 8 8 10 15 15 17 17 15 10 18 19 14 21 28 24 21 21 19 26 35 49 48 55 55 55 58 63 76 77 44 40
20 22 23 23 22 21 17 12 14 15 8 10 13 9 9 8 24 48 30 14 16 17 18 36 36 34 29 24 22 21 19 19 28 43 43 50 48 50 57 54 60 86 70 60 50
22 24 26 25 23 21 15 13 16 11 9 11 13 10 10 6 50 44 24 12 15 16 15 34 30 28 26 24 21 21 18 22 30 40 39 62 60 50 58 50 58 77 93 72 67
25 26 27 27 24 20 14 16 15 9 9 13 12 11 9 5 18 30 20 15 12 14 17 34 28 26 27 23 20 20 24 22 33 35 39 45 51 50 55 48 47 63 37 92 79
27 29 29 28 25 19 15 18 12 9 12 15 12 11 5 20 45 24 15 13 10 8 26 28 28 26 25 21 19 21 27 23 29 38 34 41 45 32 68 69 62 85 47 69 92
31 33 31 29 26 18 16 16 9 11 15 15 10 8 5 21 42 36 17 21 24 31 35 31 31 30 29 29 28 31 26 24 25 34 32 37 36 40 58 70 75 79 78 81 84
36 35 32 29 24 18 18 12 10 14 15 12 9 5 10 21 23 35 24 31 31 28 36 43 39 40 37 39 30 27 26 26 22 31 35 34 34 32 50 57 64 70 74 77 78
42 38 34 29 24 18 17 11 13 15 13 10 6 8 40 28 20 25 35 47 42 32 30 40 30 31 41 32 28 25 29 24 21 28 34 34 31 31 40 55 57 60 65 72 80
46 40 34 28 23 19 15 13 16 14 12 7 7 17 21 29 31 35 37 40 36 32 31 30 31 41 36 31 30 28 24 23 20 19 30 27 30 29 34 48 53 58 61 74 80
53 41 34 27 22 20 14 17 16 28 10 8 46 48 38 36 37 33 33 33 32 42 47 38 40 33 31 37 27 26 24 19 16 21 21 20 23 24 32 39 50 62 64 72 81
57 43 33 25 22 20 16 19 69 45 38 9 25 40 42 37 33 32 30 38 40 43 46 37 34 34 36 32 27 21 21 16 17 19 20 16 17 23 28 37 42 48 58 66 70
62 45 32 24 23 18 18 16 13 16 20 32 22 32 32 38 32 28 28 31 37 41 44 45 45 40 33 27 23 21 23 23 19 17 14 25 16 23 25 33 38 45 47 55 66
68 45 30 24 24 19 17 18 15 21 48 44 42 33 40 39 30 29 25 36 42 39 45 49 41 40 29 29 22 29 37 27 25 25 22 26 33 40 40 30 34 41 45 51 59
60 47 27 26 24 20 60 22 27 26 66 36 37 34 35 32 25 29 28 36 36 35 47 51 33 29 28 29 33 32 28 33 25 22 28 29 40 36 44 34 41 46 46 54 63
61 47 26 26 23 19 15 36 41 59 57 34 31 34 30 28 24 25 30 28 36 37 32 36 37 43 43 31 33 29 26 30 23 22 47 25 41 38 47 31 51 48 56 64 69
63 50 26 28 25 22 38 55 74 62 32 30 28 28 29 27 24 24 30 26 26 30 31 32 22 31 33 26 27 23 25 27 56 65 47 22 25 29 31 46 41 37 51 68 76
76 48 26 30 24 21 62 67 67 41 37 21 24 26 27 23 24 24 28 25 23 24 27 29 42 28 26 27 33 34 22 32 82 88 37 29 25 22 31 38 33 56 64 79 79
95 48 26 31 23 34 66 84 64 40 31 28 22 24 25 22 23 24 24 22 21 21 33 44 47 53 34 30 30 25 27 28 39 40 37 23 16 15 29 24 24 54 73 76 77
98 50 28 35 24 66 68 74 61 43 31 27 22 22 24 23 25 24 22 24 23 31 27 42 79 43 39 28 31 19 28 33 27 38 38 21 18 22 35 35 23 50 67 82 88
100 54 30 37 32 73 83 81 56 42 34 32 23 22 24 27 23 23 21 22 35 38 34 29 42 35 42 36 24 38 35 27 25 30 56 50 24 23 26 29 36 44 60 73 82
100 50 34 40 42 69 90 74 53 50 38 42 33 23 25 26 26 23 22 25 31 32 36 30 31 28 31 32 35 35 38 31 35 34 35 40 36 24 18 10 19 40 48 64 71
94 49 60 42 44 72 79 78 60 52 44 48 39 33 26 27 28 27 26 32 34 32 37 38 35 29 30 35 39 36 31 28 35 37 41 57 34 29 24 20 23 35 46 57 66
99 78 96 52 43 78 83 72 58 50 42 45 42 34 31 28 29 31 30 34 36 32 28 37 40 30 36 32 40 40 38 30 30 39 41 33 26 24 25 30 30 32 34 48 56
98 72 92 57 44 82 82 66 57 50 43 45 40 31 39 37 34 42 40 48 37 32 36 37 44 38 35 33 40 42 35 31 30 31 35 34 30 23 20 22 24 27 34 39 42
86 82 82 93 53 84 80 67 52 44 46 51 46 35 40 39 39 42 42 51 41 37 39 41 53 50 47 47 45 43 40 36 30 26 27 26 25 23 24 27 26 32 35 38 47
82 82 92 81 51 76 69 70 54 44 42 44 47 41 37 44 44 50 54 54 54 52 42 63 51 50 48 43 39 33 25 22 30 30 27 26 27 28 29 28 37 39 42 45 38

GFSSW_700_rhum_030.txt.gz
RH
12 16 17 18 20 20 20 21 19 17 12 13 12 7 9 10 8 9 12 18 18 17 18 10 16 20 22 16 24 28 22 19 21 34 46 42 48 57 56 49 64 76 80 85 87
19 21 20 20 21 21 20 21 19 17 12 13 8 7 11 9 9 9 20 19 16 17 17 8 15 21 16 17 26 28 27 24 23 37 38 40 45 51 56 62 59 69 67 84 97
24 25 24 22 22 22 21 22 20 17 12 12 7 7 11 9 9 22 21 18 15 17 16 11 19 19 17 25 26 25 22 22 22 30 37 45 50 61 64 63 67 68 76 67 72
31 31 29 25 23 23 23 22 20 17 12 9 8 10 10 9 13 29 19 17 13 18 16 21 24 22 21 22 25 26 23 23 23 30 43 52 59 63 62 58 72 69 61 80 99
36 35 33 29 25 25 25 22 21 16 12 8 11 12 10 8 9 16 17 12 11 15 19 24 26 27 28 30 28 30 22 23 35 38 47 50 62 54 55 57 70 63 60 92 79
26 32 35 32 28 27 26 23 22 15 12 8 12 12 8 8 18 20 10 9 12 13 23 29 31 29 30 31 32 32 21 33 36 47 41 42 51 54 64 69 59 49 53 76 69
16 21 31 34 32 30 28 25 24 15 11 10 12 9 7 12 18 14 21 30 11 23 28 32 45 45 34 28 35 31 26 30 31 46 41 41 50 60 46 53 59 58 71 78 80
6 16 20 32 35 33 30 27 25 15 10 11 11 9 6 8 16 17 26 32 38 26 30 36 38 38 34 33 34 31 26 26 42 42 41 40 39 46 48 45 45 50 64 75 77
0 3 15 24 37 36 32 28 24 15 10 12 10 8 11 14 18 20 30 26 30 36 32 30 32 31 30 38 30 28 26 27 48 40 34 40 39 50 51 50 60 57 62 78 79
0 0 1 17 32 38 34 29 24 15 11 12 10 8 18 21 30 31 29 36 33 46 42 32 33 30 35 37 34 32 28 27 26 25 32 36 32 43 56 55 58 66 71 62 58
0 1 1 3 29 40 36 28 23 17 17 14 10 26 33 31 32 33 34 34 40 44 47 43 40 40 37 37 38 34 34 35 29 27 30 32 32 30 46 58 67 62 62 64 48
0 0 1 1 27 44 37 26 23 20 11 20 13 20 29 37 35 34 32 33 39 44 44 41 42 39 40 41 37 35 37 35 27 23 25 28 32 33 37 55 58 58 56 46 46
0 1 1 2 28 46 34 26 24 17 20 13 16 12 29 34 33 33 34 34 45 42 37 36 41 39 39 37 40 37 36 36 31 21 26 20 32 33 39 53 58 57 52 52 46
1 0 1 2 25 41 31 26 21 19 25 10 11 11 36 34 23 33 34 33 43 40 38 37 38 38 36 37 39 37 27 30 31 21 21 18 37 30 30 36 48 52 53 55 48
1 1 1 1 29 36 34 27 19 22 60 28 19 27 26 27 29 31 32 33 32 34 35 41 40 37 36 36 38 34 35 31 30 30 32 31 28 27 28 32 36 38 46 52 52
1 1 1 1 21 43 35 28 21 45 75 39 36 32 22 26 22 29 31 31 31 35 37 39 39 38 35 33 33 35 32 32 28 32 47 40 37 30 27 28 28 28 33 41 51
2 2 1 1 31 42 36 36 59 98 23 42 37 30 26 28 24 29 34 36 33 37 40 36 38 31 36 34 31 34 30 32 42 62 58 39 40 30 28 29 28 30 32 39 50
2 2 1 1 32 41 39 83 98 30 22 37 35 33 34 35 29 26 26 28 32 34 35 37 40 35 33 39 37 35 29 34 53 70 51 40 41 30 24 23 28 32 31 34 38
2 2 2 1 41 40 43 100 75 25 17 36 35 34 34 29 30 25 25 26 27 27 28 33 38 35 30 38 39 36 33 37 34 55 62 42 31 31 32 25 30 32 36 35 41
2 2 2 2 72 43 46 61 80 23 44 32 33 32 28 27 29 28 24 25 26 29 25 26 33 33 33 33 36 39 33 33 37 56 58 34 33 37 36 28 22 34 40 46 44
2 2 2 3 100 52 47 88 51 18 42 54 36 34 26 26 27 28 23 24 28 27 27 27 27 33 34 37 32 32 29 32 30 34 58 69 34 33 33 19 17 18 22 34 41
6 63 18 7 99 63 49 76 35 21 35 50 50 41 30 22 25 26 24 24 24 24 27 32 32 33 33 32 34 41 36 38 42 33 35 40 35 31 28 24 21 23 31 29 50
48 100 86 25 93 53 50 65 41 24 28 40 48 42 34 24 26 26 23 24 25 24 27 32 36 39 39 40 38 42 38 34 35 33 34 48 37 29 30 34 30 27 27 27 25
99 100 98 67 15 43 44 40 30 25 21 42 48 48 41 30 33 30 30 28 25 31 36 34 34 34 34 31 28 38 39 41 41 40 35 37 35 33 31 29 30 32 31 32 34
98 99 83 78 30 59 84 43 32 34 25 25 52 49 46 41 34 36 38 38 36 38 37 36 35 38 36 31 31 38 45 43 44 40 38 34 31 31 29 32 28 30 33 36 38
99 98 98 51 15 18 96 50 36 30 24 26 53 52 43 42 35 37 34 36 33 36 37 37 32 30 40 38 32 33 41 44 41 41 41 35 30 29 33 32 30 30 32 38 38
99 97 100 81 38 37 36 50 27 29 26 25 47 51 41 36 36 33 34 34 35 42 40 36 32 36 38 36 39 41 28 30 31 36 30 37 36 32 32 35 35 36 37 38 37

GFSSW_700_rhum_033.txt.gz
RH
10 8 12 19 19 18 19 19 18 16 15 12 10 7 8 10 10 10 10 16 16 17 17 15 14 19 21 18 19 24 29 23 21 44 35 35 39 52 42 54 58 63 68 76 74
8 11 19 22 22 20 20 20 19 17 15 12 10 8 10 10 8 11 22 18 15 17 17 10 12 18 19 16 21 28 32 23 22 23 26 36 45 51 54 59 62 63 69 73 78
13 19 23 25 26 24 21 21 21 18 15 11 9 10 11 10 9 15 27 18 14 18 17 9 16 20 18 27 30 28 22 24 23 24 33 46 55 58 55 60 68 70 72 74 78
28 28 30 30 30 27 24 22 22 20 15 11 8 11 11 10 11 12 11 17 12 18 15 18 24 25 27 28 28 28 28 28 25 28 37 47 60 65 63 67 79 72 68 72 71
35 35 35 34 33 30 26 24 24 21 16 11 8 12 11 10 10 15 17 12 11 18 21 28 30 28 29 27 29 33 31 25 35 32 44 41 56 60 57 65 78 64 72 77 57
21 26 28 30 31 30 28 26 26 22 17 11 8 12 10 8 13 17 11 9 12 21 27 30 37 34 29 27 31 35 24 35 36 47 45 45 49 52 53 72 60 68 54 68 52
8 13 16 20 24 30 30 29 28 24 18 12 8 11 10 8 10 14 15 8 14 30 30 29 35 39 35 28 33 34 30 30 33 46 45 45 44 51 64 57 46 52 72 51 57
1 2 7 13 18 26 34 32 30 26 20 13 9 10 8 8 17 20 28 22 27 30 32 35 34 32 32 30 36 32 28 27 37 47 43 41 45 50 56 46 38 57 77 68 67
0 0 1 2 12 20 36 36 32 28 22 13 9 10 7 11 18 24 32 33 31 34 34 29 29 33 28 35 33 31 27 31 45 42 43 38 46 53 52 50 41 45 70 52 75
1 1 0 0 1 12 32 38 34 30 23 14 10 10 12 18 17 29 34 34 33 32 41 33 31 32 30 36 34 33 31 33 36 37 33 41 42 48 52 59 51 35 36 34 33
7 23 16 7 8 2 34 41 33 27 22 15 10 10 20 16 25 25 34 36 34 40 52 44 41 42 38 38 39 37 34 32 30 28 30 32 39 45 49 61 60 46 33 28 28
5 5 29 4 13 4 30 42 36 27 22 16 12 11 24 20 27 31 33 36 34 44 47 39 40 39 37 38 36 37 36 30 31 29 26 28 37 42 39 46 55 45 44 41 40
2 1 2 4 6 7 32 44 36 30 23 15 9 15 30 25 29 31 33 35 43 44 40 35 35 38 37 37 38 38 39 31 33 33 25 26 35 38 40 47 62 63 57 51 51
1 1 1 2 8 6 41 42 35 27 27 12 8 13 24 31 29 34 32 36 43 42 42 40 37 37 40 38 38 38 38 33 30 31 24 25 30 33 36 36 58 63 60 57 51
2 1 1 2 1 8 38 38 33 25 46 18 11 17 21 26 27 24 34 35 35 41 39 37 43 37 38 36 36 36 38 36 33 33 32 34 32 28 32 33 30 38 51 55 57
2 2 1 1 2 22 43 38 32 31 44 32 18 23 20 34 28 29 34 32 32 32 35 39 43 38 36 35 34 34 37 33 30 30 46 40 39 32 30 27 26 28 33 48 58
2 2 2 1 2 32 51 45 44 67 17 38 33 33 23 28 26 31 31 32 33 35 37 36 40 42 38 37 32 34 37 31 39 58 56 37 39 30 27 30 29 30 30 35 51
2 3 2 2 2 48 81 84 64 38 16 41 38 32 23 23 23 30 36 38 38 35 35 39 37 35 35 37 34 34 34 34 49 65 45 42 45 29 27 26 24 27 34 34 35
3 3 3 2 2 61 94 99 79 31 19 30 43 36 33 26 29 31 30 35 33 33 35 37 35 33 33 32 34 33 34 35 39 57 58 40 38 23 21 26 25 27 32 32 34
4 4 3 2 3 62 58 98 93 27 41 25 42 40 33 34 34 30 29 27 27 27 29 28 27 26 31 34 39 37 33 34 37 50 58 42 33 30 35 29 19 17 34 31 38
5 4 3 3 13 77 50 73 92 38 38 55 40 38 35 32 30 31 28 25 25 25 26 28 27 28 31 27 26 29 36 36 32 35 61 67 37 29 36 26 21 23 20 17 20
10 7 12 4 61 62 26 53 57 29 35 54 52 44 35 31 27 28 28 28 24 25 28 30 28 29 28 30 37 42 36 40 34 37 38 42 35 30 28 30 24 24 27 25 19
27 39 61 16 73 20 30 40 30 28 30 37 53 53 45 36 28 26 27 27 25 24 26 25 31 36 34 31 34 37 38 41 42 42 35 49 34 35 33 28 32 29 28 29 24
92 100 79 81 4 29 30 44 27 13 25 33 34 50 53 40 31 26 25 26 25 25 25 25 30 33 34 31 34 37 36 42 40 40 39 36 32 32 31 30 32 27 28 31 31
100 99 92 94 18 27 56 49 16 15 21 35 27 34 52 46 38 32 28 28 25 26 29 32 34 34 33 33 32 29 32 38 47 42 44 42 38 34 32 33 33 30 29 33 33
98 99 100 56 39 23 71 70 22 17 40 22 31 24 48 55 43 36 32 30 28 32 35 33 38 38 38 38 36 33 30 28 46 46 45 43 41 32 31 32 32 30 29 31 35
98 100 100 93 79 93 11 38 19 16 18 20 21 26 42 51 42 39 37 32 33 36 41 39 37 36 34 34 40 40 32 31 28 32 42 41 40 35 37 30 31 31 31 35 39

GFSSW_700_rhum_039.txt.gz
RH
12 12 12 11 10 8 12 20 22 22 21 19 19 14 7 11 10 9 11 15 14 16 15 17 17 16 21 22 19 26 27 17 20 27 26 32 51 57 57 60 59 61 61 60 61
11 10 10 9 8 8 15 22 25 26 24 22 20 15 7 11 11 10 12 14 15 16 15 14 9 17 20 20 19 25 27 25 26 26 27 31 55 62 67 64 67 66 67 67 76
10 9 8 8 8 12 20 25 28 29 27 24 21 17 8 11 11 11 10 10 16 17 15 10 16 21 20 26 29 28 28 34 26 26 30 42 59 61 64 61 66 71 73 77 74
38 29 19 16 15 20 24 30 32 31 29 26 23 19 8 11 12 10 10 15 15 18 13 13 22 22 31 33 32 33 35 24 24 26 38 51 54 61 64 64 72 75 78 85 80
22 30 35 35 33 32 34 34 34 33 30 27 24 21 9 11 10 11 13 15 12 18 18 21 28 26 30 33 31 35 30 34 34 35 45 52 52 54 59 68 69 65 82 91 90
6 11 17 24 29 32 33 33 33 32 30 28 26 22 10 12 12 12 16 11 12 21 25 26 28 31 31 31 34 28 30 42 43 43 52 51 52 55 54 62 57 59 69 64 73
1 2 4 8 12 18 21 23 23 25 26 28 27 24 12 11 11 12 14 10 14 28 30 30 31 31 31 30 36 31 34 36 38 44 52 49 46 57 52 50 39 34 37 25 55
1 1 1 1 3 5 8 12 15 18 21 26 28 26 13 10 9 16 13 10 20 31 31 29 29 29 29 30 33 36 34 34 34 47 43 43 44 53 54 51 45 50 26 19 56
0 0 0 0 0 1 1 3 7 13 18 25 28 28 16 9 10 18 14 14 20 31 31 28 27 27 28 29 35 34 29 32 36 51 49 42 44 48 44 46 49 63 47 29 24
1 1 0 0 0 0 0 1 2 5 15 22 28 28 19 10 11 20 22 26 29 32 32 36 36 33 30 31 35 32 30 43 40 44 48 41 40 45 49 48 47 64 61 41 32
1 1 1 1 1 13 28 25 4 4 13 14 29 22 14 11 12 21 25 34 36 39 44 40 37 29 26 38 37 34 33 32 34 35 35 34 33 32 40 46 29 30 56 34 31
2 2 2 4 12 16 21 29 26 23 32 22 19 26 26 14 15 20 27 34 38 39 43 41 42 41 37 39 37 37 38 35 32 35 32 28 28 32 36 39 33 27 25 26 24
2 3 4 8 16 14 16 26 36 39 29 28 26 25 24 18 17 18 29 33 37 41 42 39 39 40 41 40 38 36 38 40 37 33 32 28 27 28 29 34 41 38 31 32 30
2 2 3 3 5 11 10 18 27 39 46 36 29 26 22 19 18 20 27 32 37 37 42 40 36 38 41 42 39 36 38 39 38 34 30 30 29 26 26 32 35 36 43 43 44
1 2 3 2 2 4 6 6 16 35 61 30 33 31 17 20 14 21 28 31 36 38 42 38 39 40 38 39 39 37 37 38 36 35 36 34 32 25 23 23 23 28 31 38 49
2 2 3 3 2 2 2 12 37 51 70 24 24 24 18 17 24 22 31 34 36 40 43 42 39 40 42 38 40 39 38 38 36 36 41 35 35 30 27 25 25 27 29 31 33
4 2 2 3 2 2 4 49 59 99 28 26 25 22 18 19 31 29 31 35 37 40 39 36 34 35 45 41 40 38 38 39 36 50 43 42 43 30 26 27 30 26 30 28 28
4 4 2 3 2 4 8 98 98 54 31 35 39 35 21 22 37 30 33 37 37 34 32 33 36 40 43 41 38 37 37 34 42 48 36 41 39 26 27 29 28 28 27 25 26
6 5 3 3 3 4 24 100 84 74 37 36 49 55 38 28 34 34 33 35 32 34 33 38 38 37 39 36 40 38 36 34 35 51 54 38 34 26 23 30 20 25 30 28 30
84 12 4 4 4 5 69 84 78 51 39 36 34 55 41 31 34 37 38 34 32 32 33 33 38 35 35 38 42 41 39 39 40 54 55 43 36 25 27 22 21 22 23 27 32
100 94 6 6 6 34 68 74 73 68 60 46 55 33 50 40 28 35 37 33 30 32 33 34 36 34 32 32 28 36 43 41 38 38 46 47 33 30 27 27 34 28 26 25 19
100 90 53 28 58 13 9 48 88 42 68 42 57 41 42 48 37 30 30 31 30 30 33 38 33 31 30 30 29 29 32 37 39 43 40 43 37 30 27 31 30 32 29 29 28
96 86 99 69 88 13 9 64 62 34 55 52 47 54 45 51 44 33 25 24 27 31 35 34 30 31 31 31 32 34 28 36 40 39 38 54 37 32 35 36 35 34 30 29 26
100 99 97 91 21 4 59 89 100 45 30 48 47 64 64 62 47 39 36 28 30 29 28 28 29 29 31 28 30 32 30 37 40 44 42 41 36 38 37 39 33 35 34 30 30
97 96 68 84 70 12 26 32 31 48 26 26 44 41 51 66 60 43 37 36 32 31 30 29 30 30 29 29 29 29 31 33 38 35 35 29 34 34 33 35 33 34 32 32 31
97 93 68 98 34 43 100 79 52 33 15 15 23 19 31 53 57 47 39 36 31 29 28 29 30 29 29 30 30 31 33 34 31 31 31 30 29 27 27 35 34 37 32 34 33
90 82 69 45 100 100 33 80 87 58 20 30 19 23 16 26 47 53 54 49 52 41 33 31 28 30 35 32 35 41 33 34 33 33 33 33 31 34 35 39 34 41 37 33 33

GFSSW_700_rhum_042.txt.gz
RH
10 10 10 10 11 10 10 9 12 21 24 24 23 20 17 8 11 10 9 13 12 15 14 16 17 15 20 22 20 17 28 22 26 27 28 31 37 53 61 65 64 62 62 62 66
9 9 10 10 10 10 9 9 15 22 25 27 25 22 19 9 11 11 12 12 11 16 14 13 11 18 21 19 19 34 26 25 28 28 29 42 53 62 62 71 74 72 67 66 67
39 22 10 8 8 8 8 10 18 24 28 29 27 24 21 10 11 11 12 10 13 16 14 10 16 20 20 24 30 36 30 28 30 28 29 45 48 63 72 86 94 70 66 68 74
24 35 38 29 16 11 10 14 21 27 31 31 29 25 22 12 19 13 10 11 16 16 13 13 20 20 24 34 31 34 35 33 33 30 32 50 43 61 65 69 73 75 74 75 79
8 13 22 31 36 33 28 26 28 31 32 32 30 26 24 15 10 11 11 15 14 16 14 17 22 21 33 36 30 35 37 34 36 37 44 54 57 54 64 71 62 62 75 82 88
2 4 7 13 19 27 32 34 33 33 32 30 28 28 24 19 11 11 11 14 11 18 20 24 28 24 26 30 32 38 31 48 44 38 55 58 56 54 54 53 44 46 85 98 99
1 1 2 3 8 11 16 21 26 27 26 26 26 26 26 20 11 11 13 12 12 22 28 33 32 29 28 35 31 37 42 40 38 48 54 49 62 51 46 50 46 45 49 81 81
1 1 1 1 1 3 5 8 13 15 17 19 22 25 26 22 11 10 14 12 14 23 28 30 30 28 28 29 31 37 35 33 42 40 44 42 47 47 48 52 58 34 30 62 62
1 1 1 0 1 1 1 1 4 7 10 13 18 26 26 23 10 11 14 11 23 28 26 28 29 28 25 32 29 33 26 29 34 44 50 42 44 45 47 44 59 52 32 62 71
2 1 1 1 0 0 0 0 1 1 2 5 14 26 25 21 10 12 15 15 26 29 30 32 36 38 32 27 24 25 28 31 34 46 38 52 48 44 51 46 45 72 54 36 61
1 2 1 1 1 0 1 7 15 12 2 2 18 26 25 21 12 16 19 22 29 34 45 44 44 32 26 27 32 33 28 29 32 36 33 37 40 48 43 44 35 53 68 47 34
1 1 2 2 1 1 2 8 20 25 24 16 10 19 25 27 12 18 24 33 34 45 45 47 39 41 33 34 40 40 33 31 35 32 33 30 32 39 38 41 38 28 35 45 41
5 1 1 2 3 3 6 10 15 19 25 20 29 29 26 28 22 14 26 36 35 44 46 41 40 40 40 40 42 40 36 37 36 35 30 27 29 26 30 36 39 28 26 24 18
5 4 2 2 2 4 7 10 12 16 36 32 30 34 29 29 29 17 18 31 36 42 44 45 42 39 44 41 42 35 38 39 42 35 27 29 23 30 35 28 35 38 34 32 29
3 5 2 2 2 3 3 5 10 15 42 32 36 40 35 29 29 20 20 30 39 40 42 41 39 37 41 38 42 37 37 40 43 36 35 31 25 24 24 28 37 31 36 42 41
4 4 4 2 3 3 3 2 11 47 42 32 29 37 39 28 28 24 20 33 39 43 37 38 38 42 41 40 38 42 40 42 42 39 32 30 28 24 25 24 26 30 28 34 42
7 4 4 4 3 3 3 5 64 57 31 31 35 28 35 29 39 21 31 40 36 41 42 45 43 43 36 45 38 40 41 36 34 35 34 40 35 25 28 26 24 24 26 30 37
17 8 6 5 4 4 6 48 58 25 33 39 41 46 40 40 41 41 37 37 37 35 34 36 34 39 40 44 36 40 38 36 37 36 28 44 30 26 28 26 27 27 25 28 29
47 33 10 10 7 7 52 92 38 37 31 36 44 63 55 43 36 43 38 34 37 39 32 33 32 37 41 43 39 44 40 38 42 34 36 27 28 26 23 26 28 26 29 27 26
74 95 25 16 22 22 85 34 45 42 37 21 45 61 55 42 37 39 40 38 36 39 32 37 35 38 40 40 39 42 40 39 38 40 38 28 29 21 27 27 23 22 23 26 28
94 100 79 17 54 100 98 22 35 59 32 49 60 48 59 49 41 39 36 36 38 42 36 35 37 46 41 44 38 45 43 40 38 39 35 35 27 28 27 29 32 32 29 26 23
89 94 88 100 81 98 84 42 57 65 44 48 59 53 56 54 43 40 35 35 25 38 35 40 38 41 37 36 33 36 36 39 37 34 45 48 34 29 31 32 31 32 32 30 28
95 99 99 99 74 93 10 92 77 74 66 72 67 50 46 48 52 44 36 37 31 32 34 41 39 39 38 34 34 37 38 35 36 40 41 51 36 31 32 33 34 31 33 32 31
100 99 97 94 69 15 32 92 83 80 58 82 76 52 54 48 48 44 41 34 32 28 35 32 37 37 33 29 30 40 36 32 38 45 39 44 34 33 34 35 34 34 31 34 34
97 98 79 82 89 35 57 77 79 81 80 81 81 66 65 67 59 48 41 36 30 29 27 35 38 38 32 28 27 28 28 40 41 39 37 37 33 34 29 33 31 28 27 35 34
97 91 93 75 43 65 37 82 73 80 73 60 72 76 64 71 62 57 45 42 40 32 32 32 36 39 38 36 31 31 32 31 38 34 39 37 33 30 35 32 30 32 23 35 31
94 91 100 89 73 73 96 26 86 80 74 62 61 58 24 40 54 63 58 54 60 53 39 36 34 37 35 40 40 41 33 34 36 38 33 35 33 33 39 35 34 37 35 37 40

GFSSW_700_rhum_048.txt.gz
RH
37 37 26 12 8 9 9 9 9 10 10 9 13 20 23 24 22 19 10 10 10 10 11 12 11 14 20 37 29 26 24 24 24 26 26 27 30 38 61 59 63 88 70 81 75
19 24 33 38 32 13 9 8 8 8 9 9 12 21 25 26 24 20 15 10 10 10 13 11 14 23 33 28 25 23 24 28 23 22 26 28 32 46 54 63 56 56 92 94 75
6 11 15 21 30 37 32 13 8 7 7 8 12 21 27 26 25 24 16 11 10 9 14 11 22 26 26 24 23 24 23 26 23 26 28 28 36 45 55 64 44 39 57 96 76
4 3 4 9 14 19 28 36 33 19 10 8 12 18 28 30 29 24 18 11 10 10 14 12 14 29 27 25 26 24 22 26 25 30 32 31 49 59 65 41 35 35 55 65 65
4 4 3 3 4 8 14 19 28 34 33 23 20 22 29 29 28 25 20 11 10 12 14 14 36 32 32 26 21 24 24 26 33 38 36 40 48 74 69 32 30 32 37 51 76
6 4 4 4 2 2 4 8 13 19 27 31 32 31 30 27 30 28 23 12 10 13 13 22 36 36 35 33 25 24 29 27 38 36 44 51 53 74 90 37 31 25 26 50 63
7 5 5 3 3 2 2 2 3 9 14 16 20 25 29 26 27 27 24 13 11 13 14 35 37 40 34 35 30 27 25 26 35 40 39 44 51 45 78 90 39 27 32 44 68
9 6 4 4 3 2 2 1 1 2 4 6 10 12 22 20 24 25 24 13 11 14 13 39 39 38 41 38 34 28 24 24 31 41 60 44 56 61 82 92 92 56 42 39 87
9 9 5 3 2 2 2 1 1 1 1 2 3 6 16 18 19 23 24 14 14 16 13 18 25 29 38 35 30 26 23 26 29 35 48 53 78 53 76 79 78 88 70 41 48
3 5 10 5 2 2 2 1 1 1 1 1 1 4 11 12 24 22 23 15 36 18 18 20 34 38 35 30 28 22 22 22 33 37 34 40 66 46 79 65 75 84 43 40 43
2 2 3 10 6 1 2 2 2 27 26 16 26 24 28 38 28 21 21 15 37 41 41 40 42 39 34 29 25 19 20 28 32 36 31 26 30 43 48 58 70 77 49 33 33
3 2 2 3 9 5 1 1 11 12 7 7 9 11 12 47 27 25 23 20 28 43 42 41 42 39 35 30 25 22 21 22 21 29 27 21 26 40 46 56 60 70 63 32 28
9 6 2 3 3 7 4 1 11 3 5 7 6 9 14 16 17 41 35 31 34 42 41 39 36 37 33 32 27 24 23 25 34 31 30 26 22 33 43 49 54 57 67 61 15
21 15 8 2 3 4 6 2 2 3 7 20 18 23 14 21 19 29 39 37 39 37 39 36 34 34 36 29 24 24 25 25 29 28 24 30 29 29 30 49 50 52 58 57 37
23 24 17 9 4 6 42 66 5 3 37 20 27 40 36 29 28 18 31 44 41 36 37 35 34 32 37 29 27 26 34 33 30 27 26 30 35 26 31 39 44 48 56 60 58
21 23 29 20 9 5 29 39 11 52 41 24 41 36 43 53 45 36 32 37 40 36 37 32 31 32 34 32 30 29 31 36 34 32 35 28 25 37 32 40 31 42 51 56 57
49 23 29 34 17 12 91 40 69 49 18 16 36 53 49 56 53 38 41 37 40 36 36 31 30 31 32 31 30 31 33 37 39 39 41 28 27 30 29 27 26 30 38 49 53
62 48 27 37 33 25 99 47 59 26 30 32 26 37 50 53 53 50 38 37 38 34 34 32 31 30 34 33 34 35 33 40 65 69 52 38 28 25 33 30 27 27 28 39 47
88 74 34 37 44 55 100 97 45 35 22 21 32 36 41 48 43 47 35 36 36 35 33 29 30 28 32 33 34 33 34 33 53 50 58 45 31 29 27 24 26 28 31 36 34
100 100 68 47 60 82 99 98 30 41 33 27 23 26 34 43 41 40 42 37 36 36 33 30 31 28 28 31 34 33 34 34 32 52 56 26 22 24 28 24 24 24 30 38 42
100 100 95 100 78 98 99 67 61 52 46 39 29 25 27 31 41 36 37 38 38 36 33 33 30 29 28 30 30 33 34 44 38 33 49 49 33 34 31 25 24 26 27 31 36
100 100 97 91 97 100 78 10 12 28 50 52 40 37 30 31 31 55 32 34 35 33 37 30 30 32 31 30 36 34 33 38 37 41 45 46 41 32 32 27 26 30 30 32 34
96 100 98 96 93 84 51 30 28 69 55 46 48 45 33 38 38 45 51 31 36 33 35 34 32 35 32 42 40 35 34 34 33 34 37 62 46 32 31 30 30 30 32 33 35
99 99 96 98 85 67 62 25 26 45 67 47 51 40 36 43 58 50 54 32 36 36 34 38 34 34 41 43 37 35 35 41 43 44 49 41 40 34 29 33 30 29 29 31 33
97 94 74 89 84 76 99 73 76 74 76 61 46 49 41 70 66 78 62 53 37 39 38 36 41 34 33 33 32 35 34 33 33 31 34 37 34 31 27 34 36 38 36 34 36
97 95 88 94 69 91 97 91 80 66 62 56 54 50 44 54 57 58 65 66 56 43 37 35 44 38 40 34 34 39 43 30 29 27 27 28 29 26 25 27 27 25 26 34 38
97 76 98 83 95 97 78 49 83 74 60 50 48 56 51 55 51 86 68 72 73 63 44 52 47 39 45 38 35 33 35 32 29 25 24 24 26 26 26 32 26 27 29 33 38

GFSSW_700_rhum_054.txt.gz
RH
10 13 17 21 22 27 34 35 27 13 7 6 7 7 7 7 8 10 15 19 19 14 10 9 11 11 12 25 26 32 32 24 24 24 27 29 28 35 40 49 55 39 41 41 41
15 11 10 10 12 16 20 24 32 35 27 11 7 7 6 6 6 11 15 19 21 13 10 9 12 10 12 27 29 30 30 24 24 24 30 34 34 31 45 48 51 42 27 31 44
11 10 12 13 11 8 9 13 20 23 32 34 25 8 7 6 5 10 14 22 12 11 10 9 13 11 11 24 25 26 26 26 24 27 37 38 35 41 49 44 41 34 30 27 40
12 12 10 10 10 12 10 7 8 14 19 23 31 32 19 7 11 15 22 22 22 15 10 10 13 11 20 24 29 34 32 30 25 28 36 37 38 43 44 43 45 30 38 29 29
22 18 13 10 11 8 8 9 8 8 9 13 19 25 32 27 12 16 16 22 25 22 12 11 14 12 15 30 34 37 36 33 28 30 28 34 42 44 42 45 40 36 34 31 31
18 17 21 17 14 10 10 9 8 8 10 6 7 14 20 25 25 23 21 23 26 24 13 11 14 18 23 29 34 34 34 34 28 25 25 34 38 37 42 40 31 34 33 34 56
56 35 47 19 21 17 12 10 10 8 8 6 5 6 15 24 21 24 24 26 26 25 12 12 16 33 36 27 31 33 33 25 24 26 24 33 40 41 39 42 36 27 23 41 72
22 52 19 45 30 15 17 15 10 8 10 6 6 6 21 13 14 21 23 25 26 25 13 16 27 31 36 30 24 30 32 31 24 25 27 31 36 39 40 38 40 26 22 43 45
40 15 4 18 40 13 9 14 9 6 6 6 7 7 23 17 14 14 15 21 25 25 13 19 37 34 37 34 21 18 19 26 28 29 32 35 36 39 45 45 44 50 25 35 26
6 20 7 3 4 9 4 7 9 5 4 4 6 14 22 16 13 18 16 18 22 24 14 21 40 38 34 25 17 13 30 30 32 33 31 36 32 38 45 42 36 43 28 30 32
10 9 5 4 4 2 3 3 5 8 5 5 10 17 21 22 21 18 24 18 20 27 15 22 27 27 14 13 12 19 33 36 28 29 36 32 28 33 44 39 38 30 35 22 34
14 15 14 11 7 4 3 3 4 11 9 9 9 12 21 17 20 19 22 25 25 25 23 39 28 17 14 18 24 35 38 39 30 32 36 33 33 35 46 42 44 36 37 38 25
17 18 17 17 15 10 6 3 4 5 6 3 4 6 10 14 18 20 25 23 27 24 31 37 30 24 23 37 41 41 42 33 27 27 36 35 33 34 44 42 41 34 47 65 47
21 26 24 19 17 16 12 5 4 6 7 3 3 5 4 5 12 16 28 27 26 24 29 44 35 28 39 38 40 42 39 28 28 33 32 32 35 30 37 46 39 43 27 38 64
34 43 46 30 19 19 18 8 5 7 26 4 18 22 27 9 12 18 17 30 24 21 36 30 32 30 36 38 39 39 35 28 28 33 36 33 34 32 36 48 44 43 35 29 42
61 62 64 52 27 30 23 29 52 20 86 4 28 25 26 27 16 25 12 26 22 33 39 29 31 37 37 37 38 36 33 33 33 34 45 34 37 35 36 34 36 46 42 38 42
80 76 68 58 41 29 37 99 70 76 10 5 29 36 32 30 25 38 24 31 42 44 42 36 36 34 37 40 37 35 34 39 46 57 59 40 48 36 30 31 33 37 36 38 43
91 89 76 61 55 28 67 99 88 27 8 22 36 45 38 38 38 28 38 31 38 43 41 48 43 33 34 38 37 34 34 38 57 83 64 44 43 34 30 30 31 32 33 36 37
100 100 80 69 70 36 50 99 86 51 33 17 28 23 54 44 43 47 38 38 41 42 45 41 46 32 31 35 34 34 33 32 36 67 70 49 42 37 30 29 30 30 34 35 38
98 98 73 94 93 45 73 92 98 58 25 37 35 32 44 54 52 56 53 44 38 40 42 40 44 37 31 32 33 33 32 38 40 70 68 54 50 41 32 30 27 27 30 34 36
98 98 69 96 100 62 71 100 81 71 24 27 41 34 35 37 39 51 52 53 48 43 42 43 42 38 37 33 35 33 33 34 36 40 67 66 42 33 32 32 28 26 28 30 29
98 98 86 98 95 74 51 56 88 54 42 37 25 37 36 44 38 36 35 42 53 52 42 40 41 41 38 36 35 36 35 34 36 54 45 45 47 38 33 34 28 28 25 27 30
97 100 98 97 86 63 70 68 84 98 59 37 43 37 29 44 48 47 44 35 46 61 60 48 44 44 41 37 38 37 35 34 33 34 38 60 48 39 36 38 36 32 28 29 29
98 98 98 91 69 73 85 85 93 82 70 48 31 28 27 30 38 45 35 33 42 55 63 51 44 42 45 42 40 34 37 36 33 37 38 40 41 39 43 38 38 35 32 29 31
97 96 91 99 82 87 82 84 78 88 69 60 45 38 33 34 21 20 35 36 36 42 64 56 50 48 42 43 43 38 40 36 35 33 38 39 41 38 41 39 36 37 32 31 29
96 100 100 90 100 98 78 67 88 100 98 63 59 43 37 30 15 27 40 45 47 43 80 66 66 50 50 44 44 41 36 39 38 40 42 38 38 36 36 36 33 34 32 32 32
100 100 100 97 100 96 44 69 100 100 95 75 65 59 46 47 39 31 55 50 56 60 58 86 96 73 56 47 43 44 38 41 39 42 44 42 41 40 35 31 31 34 34 31 29

GFSSW_700_rhum_060.txt.gz
RH
37 31 25 20 16 15 13 15 19 24 25 28 31 31 19 7 6 5 6 7 12 19 21 16 12 12 12 13 15 26 28 26 26 28 32 27 30 35 39 40 42 46 47 50 50
37 34 26 24 18 16 18 16 12 15 18 21 25 28 32 25 13 6 5 6 9 20 22 20 14 12 13 16 19 26 26 26 27 33 33 26 32 37 39 41 44 47 44 41 35
51 48 32 24 20 19 13 17 20 11 16 12 17 21 23 28 27 22 6 6 8 16 23 19 14 12 13 20 24 26 26 27 26 34 30 27 31 34 40 39 42 45 44 38 34
48 45 40 39 28 19 15 12 13 15 11 16 12 12 15 23 22 24 16 8 14 21 15 13 14 13 14 14 24 28 27 27 26 31 30 29 29 28 42 33 37 46 31 29 30
34 42 61 46 32 29 25 14 11 11 8 11 13 14 11 20 24 26 21 26 29 27 19 15 14 12 14 15 18 26 26 28 31 32 30 28 28 31 27 27 33 45 26 23 39
33 27 38 50 65 50 31 46 14 9 9 8 9 11 17 26 17 17 28 26 25 27 26 27 21 13 15 16 22 30 28 28 29 32 30 28 30 27 26 29 35 46 35 23 33
28 32 20 34 44 66 58 57 65 16 10 9 9 11 13 27 15 20 20 23 27 17 21 27 28 14 16 16 21 28 27 27 26 27 29 28 26 26 28 36 39 47 48 32 26
4 17 26 19 21 62 73 68 49 39 17 12 10 10 23 24 16 24 14 19 24 26 27 31 31 18 14 24 25 25 24 20 23 25 28 31 28 32 32 37 36 44 47 43 21
4 5 6 18 13 42 66 69 80 83 56 37 11 10 27 27 25 23 20 13 14 25 32 31 25 15 17 30 32 30 26 18 19 24 32 35 31 33 32 35 33 42 46 31 18
5 7 7 9 11 13 37 56 37 73 75 36 36 15 26 24 19 24 22 18 9 15 30 29 24 17 17 34 32 26 22 17 17 29 35 34 28 31 37 34 32 39 38 21 14
4 7 10 11 10 11 17 34 25 16 34 72 14 10 16 24 27 22 21 22 14 8 22 27 27 22 18 19 25 27 21 20 21 33 36 30 31 32 37 35 33 40 27 17 12
5 7 10 12 13 15 14 21 29 24 18 15 42 42 8 6 16 32 27 22 25 11 13 27 27 24 21 28 29 29 33 18 30 34 37 31 32 32 35 34 31 37 44 25 13
5 7 10 14 15 16 18 18 17 17 18 17 15 10 25 11 6 17 33 34 26 23 12 20 30 26 23 29 33 30 29 16 34 34 38 31 28 31 32 32 31 32 30 28 14
5 6 12 15 15 20 29 24 22 45 58 18 9 8 9 7 9 5 17 30 36 31 20 24 27 26 28 25 26 27 16 26 40 43 44 38 48 30 31 29 28 27 34 36 18
5 6 11 15 16 24 56 28 36 82 62 10 7 9 13 13 10 7 6 23 36 32 36 26 25 31 31 25 25 22 17 37 43 44 46 40 41 34 31 31 29 28 34 37 24
6 6 10 14 17 50 54 36 85 100 83 7 10 31 16 25 24 14 12 10 26 42 43 30 39 37 28 30 31 26 36 43 43 42 56 38 39 36 33 28 24 22 28 34 32
6 6 12 16 22 75 67 37 97 98 32 26 31 48 46 33 34 25 17 12 18 37 48 37 39 42 38 42 38 38 43 49 51 64 65 36 40 37 33 28 36 25 24 31 35
8 16 25 16 37 84 81 76 100 77 62 33 29 32 54 45 41 42 44 13 20 35 42 44 41 41 36 38 42 44 43 46 60 68 52 45 50 33 38 38 35 30 29 31 34
51 40 36 21 70 99 95 88 91 80 72 49 30 28 45 60 49 36 44 34 14 38 34 40 37 28 29 24 33 41 44 40 41 61 71 45 38 34 26 28 32 28 26 25 30
58 80 60 54 100 99 100 100 82 96 69 74 39 39 47 54 57 48 37 63 33 17 31 35 41 38 30 37 31 31 36 42 46 75 78 56 50 34 30 34 30 30 27 26 27
81 80 56 69 98 98 98 98 80 76 87 71 47 48 51 51 49 55 58 68 56 53 26 43 40 37 44 44 40 39 41 41 41 45 60 62 48 32 28 35 36 31 28 28 28
89 100 60 78 99 98 100 97 84 55 83 61 68 53 49 47 43 44 55 57 53 67 52 41 46 42 32 34 39 41 39 37 42 50 49 46 42 34 32 36 34 32 30 28 28
100 98 64 100 95 98 99 90 84 75 54 80 89 70 55 45 37 41 57 60 50 70 76 75 56 54 50 46 47 43 36 43 42 39 42 55 46 38 36 31 32 34 33 31 28
100 98 74 97 74 98 98 90 90 77 82 60 69 68 62 51 47 32 32 57 58 56 70 81 82 64 62 52 49 44 41 39 42 42 44 41 39 36 36 35 34 35 34 30 30
97 94 66 97 97 90 90 94 100 100 87 83 71 57 61 66 67 53 35 23 28 59 29 65 74 93 81 74 64 55 51 44 38 38 41 41 39 38 37 34 33 33 33 35 34
98 95 77 90 87 100 100 99 95 94 98 83 75 76 82 74 64 57 42 33 36 40 45 42 74 70 79 82 66 58 52 49 45 44 44 43 42 41 38 38 36 35 33 34 36
97 99 100 93 97 99 92 94 84 88 82 84 86 82 75 69 84 78 59 48 45 43 35 48 63 71 68 71 75 61 59 54 52 50 47 45 44 42 39 43 41 39 38 38 38